TimeMDT,TemperatureF,Dew PointF,Humidity,Sea Level PressureIn,VisibilityMPH,Wind Direction,Wind SpeedMPH,Gust SpeedMPH,PrecipitationIn,Events,Conditions,WindDirDegrees,DateUTC
12:09 AM,55.4,23.0,29,30.19,10.0,Calm,Calm,-,N/A,,Mostly Cloudy,0,2011-10-22 06:09:00
12:19 AM,55.4,23.0,29,30.18,10.0,Calm,Calm,-,N/A,,Scattered Clouds,0,2011-10-22 06:19:00
12:46 AM,51.8,23.0,33,30.18,10.0,WNW,6.9,-,N/A,,Clear,290,2011-10-22 06:46:00
12:52 AM,53.6,23.0,30,30.18,10.0,NW,8.1,-,N/A,,Scattered Clouds,310,2011-10-22 06:52:00
1:18 AM,51.8,23.0,33,30.17,10.0,NW,5.8,-,N/A,,Mostly Cloudy,320,2011-10-22 07:18:00
1:44 AM,51.8,23.0,33,30.17,5.0,NW,10.4,-,N/A,,Haze,320,2011-10-22 07:44:00
1:53 AM,51.8,23.0,33,30.17,10.0,NNW,9.2,-,N/A,,Clear,330,2011-10-22 07:53:00
2:28 AM,51.8,23.0,33,30.18,10.0,NNW,10.4,-,N/A,,Scattered Clouds,330,2011-10-22 08:28:00
2:42 AM,51.8,23.0,33,30.18,10.0,NW,10.4,-,N/A,,Scattered Clouds,310,2011-10-22 08:42:00
3:28 AM,51.8,23.0,33,30.17,10.0,NNW,8.1,-,N/A,,Clear,340,2011-10-22 09:28:00
3:48 AM,50.0,24.8,37,30.17,7.0,NW,4.6,-,N/A,,Clear,320,2011-10-22 09:48:00
3:49 AM,50.0,24.8,37,30.17,7.0,NW,4.6,-,N/A,,Clear,310,2011-10-22 09:49:00
4:18 AM,50.0,26.6,40,30.17,10.0,Calm,Calm,-,N/A,,Scattered Clouds,0,2011-10-22 10:18:00
4:35 AM,44.6,26.6,49,30.18,10.0,Calm,Calm,-,N/A,,Clear,0,2011-10-22 10:35:00
5:02 AM,48.2,26.6,43,30.18,10.0,Calm,Calm,-,N/A,,Scattered Clouds,0,2011-10-22 11:02:00
5:28 AM,46.4,28.4,50,30.19,10.0,West,4.6,-,N/A,,Mostly Cloudy,270,2011-10-22 11:28:00
5:33 AM,48.2,28.4,46,30.18,10.0,West,3.5,-,N/A,,Mostly Cloudy,270,2011-10-22 11:33:00
5:50 AM,50.0,26.6,40,30.19,40.0,West,3.5,-,N/A,,Scattered Clouds,270,2011-10-22 11:50:00
6:50 AM,48.2,26.6,43,30.18,40.0,Variable,4.6,-,N/A,,Scattered Clouds,0,2011-10-22 12:50:00
7:49 AM,50.0,26.6,40,30.19,50.0,Calm,Calm,-,N/A,,Mostly Cloudy,0,2011-10-22 13:49:00
8:50 AM,53.6,28.4,38,30.20,50.0,Calm,Calm,-,N/A,,Scattered Clouds,0,2011-10-22 14:50:00
9:55 AM,62.6,23.0,22,30.18,50.0,SSW,3.5,-,N/A,,Partly Cloudy,200,2011-10-22 15:55:00
10:47 AM,64.4,19.4,18,30.18,50.0,West,25.3,31.1,N/A,,Mostly Cloudy,260,2011-10-22 16:47:00
12:47 PM,66.2,23.0,19,30.18,50.0,North,12.7,23.0,N/A,,Mostly Cloudy,350,2011-10-22 18:47:00
1:45 PM,68.0,19.4,16,30.15,50.0,NNW,8.1,16.1,N/A,,Mostly Cloudy,340,2011-10-22 19:45:00
2:47 PM,68.0,19.4,16,30.15,50.0,NNE,6.9,-,N/A,,Mostly Cloudy,20,2011-10-22 20:47:00
3:47 PM,68.0,21.2,17,30.15,50.0,ENE,15.0,-,N/A,,Mostly Cloudy,60,2011-10-22 21:47:00
4:47 PM,66.2,21.2,18,30.15,50.0,ENE,8.1,-,N/A,,Scattered Clouds,60,2011-10-22 22:47:00
5:45 PM,62.6,23.0,22,30.16,50.0,East,5.8,-,N/A,,Scattered Clouds,90,2011-10-22 23:45:00
6:45 PM,59.0,24.8,27,30.18,50.0,East,5.8,-,N/A,,Scattered Clouds,100,2011-10-23 00:45:00
8:50 PM,55.4,24.8,31,30.20,30.0,Calm,Calm,-,N/A,,Scattered Clouds,0,2011-10-23 02:50:00
9:50 PM,50.0,24.8,37,30.20,30.0,SW,4.6,-,N/A,,Partly Cloudy,230,2011-10-23 03:50:00